Location: Derby
(52.9213°N, 1.4761°W)
Time: 19:28:31
(UTC+01:00)

Tiros 1 - Pass Details

Date: 24 May 2025
Orbit: 620 x 651 km, 48.4° (Epoch: 13 June)

Event Time Altitude Azimuth Distance (km) Brightness Sun altitude
Rises 20:02:21 0° 265° (W) 2,899 11.7 8.1°
Reaches altitude 10° 20:04:43 10° 260° (W) 1,995 10.7 7.7°
Maximum altitude 20:09:07 47° 187° (S) 838 7.7 7.1°
Drops below altitude 10° 20:13:32 10° 114° (ESE) 2,010 9.1 6.5°
Sets 20:15:56 0° 109° (ESE) 2,923 9.8 6.2°
